Location: Cluj-Napoca
(46.7712°N, 23.6236°E)
Time: 06:00:32
(UTC+03:00)

ISS - Pass Details

Date: 31 March 2020
Orbit: 417 x 423 km, 51.6° (Epoch: 29 March)

Event Time Altitude Azimuth Distance (km) Brightness Sun altitude
Rises 22:47:15 0° 291° (WNW) 2,362 1.1 -27.4°
Reaches altitude 10° 22:49:30 10° 280° (W) 1,496 -0.3 -27.7°
Enters shadow 22:50:14 15° 272° (W) 1,249 -0.8 -27.8°
